Weather History for Leadville, CO

Change the Weather History Date:

Sunday, November 17, 2013

  Actual Average Record
Temperature  
Mean Temperature 23 °F -  
Max Temperature 32 °F 36 °F 52 °F (1979)
Min Temperature 14 °F 12 °F -10 °F (1980)
Degree Days  
Heating Degree Days 42 41  
Month to date heating degree days 644 643  
Since 1 July heating degree days 2679 2832  
Cooling Degree Days 0 0  
Month to date cooling degree days 0 0  
Year to date cooling degree days 0 0  
Moisture  
Dew Point 13 °F    
Average Humidity 63    
Maximum Humidity 77    
Minimum Humidity 49    
Precipitation  
Precipitation 0.03 in 0.02 in 0.05 in (1991)
Month to date precipitation 0.74 0.46  
Year to date precipitation 16.61 11.40  
Sea Level Pressure  
Sea Level Pressure 29.82 in    
Wind  
Wind Speed 16 mph (NW)    
Max Wind Speed 40 mph    
Max Gust Speed 63 mph    
Visibility 4 miles    
Events Fog , Snow    
T = Trace of Precipitation, MM = Missing Value Source: NWS Daily Summary

Daily Weather History Graph

Daily Weather History Graph

Search for Another Location

Airport:

Trip Planner

Search our weather history database for the weather conditions in past years. The results will help you decide how hot, cold, wet, or windy it might be!

Date:

Astronomy

Nov. 17, 2013 Rise Set
Actual Time 6:51 AM MST 4:48 PM MST
Civil Twilight 6:22 AM MST 5:17 PM MST
Nautical Twilight 5:49 AM MST 5:50 PM MST
Astronomical Twilight 5:18 AM MST 6:22 PM MST
Moon 5:07 PM MST (11/17) 6:47 AM MST (11/17)
Length of Visible Light 10h 55m
Length of Day
9h 57m
Full, 100% of the Moon is Illuminated
Nov 17
Full
Nov 25
Last Quarter
Dec 2
New
Dec 9
First Quarter
Dec 17
Full

Hourly Weather History & Observations

Time (MST) Temp. Windchill Dew Point Humidity Pressure Visibility Wind Dir Wind Speed Gust Speed Precip Events Conditions
12:36 AM 21.0 °F 5.4 °F 15.1 °F 78% 29.63 in 0.8 mi WNW 20.7 mph 36.8 mph 0.01 in Snow Light Snow
12:45 AM 21.0 °F 6.6 °F 15.1 °F 78% 29.63 in 0.8 mi WNW 17.3 mph 39.1 mph 0.01 in Snow Light Snow
12:47 AM 21.2 °F 4.9 °F 15.8 °F 80% 29.63 in 1.0 mi WNW 23.0 mph 39.1 mph 0.01 in Snow Light Snow
12:53 AM 21.0 °F 6.2 °F 15.1 °F 78% 29.50 in 1.2 mi West 18.4 mph 38.0 mph 0.01 in Snow Light Snow
1:06 AM 19.9 °F 5.7 °F 17.1 °F 89% 29.64 in 0.8 mi WNW 16.1 mph 32.2 mph 0.00 in Snow Light Snow
1:29 AM 21.0 °F 2.4 °F 15.1 °F 78% 29.64 in 0.2 mi WNW 31.1 mph 48.3 mph 0.00 in Snow Heavy Snow
1:36 AM 21.0 °F 1.9 °F 14.0 °F 74% 29.64 in 0.5 mi WNW 33.4 mph 50.6 mph 0.00 in Snow Snow
1:53 AM 21.0 °F 1.7 °F 12.9 °F 71% 29.52 in 0.8 mi West 34.5 mph 51.8 mph 0.00 in Snow Light Snow
1:59 AM 21.9 °F 6.2 °F 12.9 °F 68% 29.66 in 1.0 mi WNW 21.9 mph 47.2 mph 0.00 in Snow Light Snow
2:29 AM 21.0 °F 5.0 °F 12.9 °F 71% 29.67 in 0.8 mi WNW 21.9 mph 43.7 mph 0.00 in Snow Light Snow
2:40 AM 21.9 °F 2.9 °F 12.0 °F 66% 29.66 in 1.0 mi West 34.5 mph 48.3 mph 0.00 in Snow Light Snow
2:53 AM 21.9 °F 4.2 °F 12.0 °F 66% 29.54 in 1.5 mi West 28.8 mph 42.6 mph 0.00 in Snow Light Snow
3:06 AM 21.0 °F 3.0 °F 14.0 °F 74% 29.68 in 0.8 mi West 28.8 mph 43.7 mph 0.00 in Snow Light Snow
3:19 AM 19.9 °F 1.3 °F 16.0 °F 85% 29.69 in 0.2 mi WNW 29.9 mph 43.7 mph 0.00 in Fog , Snow Snow
3:30 AM 21.0 °F 0.5 °F 12.9 °F 71% 29.68 in 0.5 mi WNW 40.3 mph 62.1 mph 0.00 in Snow Snow
3:53 AM 21.0 °F 2.2 °F 14.0 °F 74% 29.58 in 0.5 mi WNW 32.2 mph 49.5 mph 0.00 in Snow Snow
4:08 AM 21.0 °F 1.7 °F 12.9 °F 71% 29.72 in 0.8 mi West 34.5 mph 44.9 mph 0.01 in Snow Light Snow
4:32 AM 19.9 °F 2.8 °F 15.1 °F 81% 29.75 in 0.2 mi WNW 24.2 mph 58.7 mph 0.01 in Snow Heavy Snow
4:39 AM 21.0 °F 3.0 °F 14.0 °F 74% 29.74 in 0.5 mi West 28.8 mph 42.6 mph 0.01 in Snow Snow
4:53 AM 21.0 °F 2.7 °F 12.9 °F 71% 29.63 in 0.5 mi WNW 29.9 mph 63.3 mph 0.02 in Snow Snow
5:06 AM 21.0 °F 3.3 °F 12.9 °F 71% 29.74 in 1.0 mi West 27.6 mph 42.6 mph 0.00 in Snow Light Snow
5:14 AM 19.9 °F 1.5 °F 12.0 °F 71% 29.76 in 0.8 mi West 28.8 mph 51.8 mph 0.00 in Snow Light Snow
5:53 AM 21.0 °F 3.3 °F 10.9 °F 65% 29.68 in 1.5 mi WNW 27.6 mph 44.9 mph 0.00 in Snow Light Snow
6:51 AM 21.2 °F 7.3 °F 12.2 °F 68% 29.84 in 2.5 mi West 16.1 mph 35.7 mph 0.00 in Snow Light Snow
6:53 AM 21.0 °F 8.1 °F 12.9 °F 71% 29.75 in 3.0 mi WNW 13.8 mph 32.2 mph 0.00 in Snow Light Snow
7:03 AM 21.0 °F 6.6 °F 12.9 °F 71% 29.86 in 1.8 mi WNW 17.3 mph 33.4 mph 0.00 in Snow Light Snow
7:22 AM 21.0 °F 7.1 °F 14.0 °F 74% 29.88 in 1.8 mi WNW 16.1 mph 32.2 mph 0.00 in Snow Light Snow
7:37 AM 21.9 °F 6.2 °F 12.0 °F 66% 29.88 in 1.2 mi WNW 21.9 mph 38.0 mph 0.00 in Snow Light Snow
7:53 AM 21.9 °F 5.1 °F 12.0 °F 66% 29.80 in 2.0 mi WNW 25.3 mph 42.6 mph 0.00 in Snow Light Snow
8:01 AM 21.9 °F 5.5 °F 12.9 °F 68% 29.91 in 1.0 mi WNW 24.2 mph 40.3 mph 0.00 in Snow Light Snow
8:08 AM 21.9 °F 5.1 °F 12.0 °F 66% 29.91 in 2.0 mi WNW 25.3 mph 33.4 mph 0.00 in Snow Light Snow
8:26 AM 21.9 °F 6.2 °F 12.0 °F 66% 29.93 in 4.0 mi NW 21.9 mph 34.5 mph 0.00 in Snow Light Snow
8:48 AM 21.2 °F 7.3 °F 12.2 °F 68% 29.96 in 2.0 mi NW 16.1 mph 40.3 mph 0.00 in Snow Light Snow
8:53 AM 21.9 °F 9.8 °F 12.0 °F 66% 29.89 in 5.0 mi NW 12.7 mph 40.3 mph 0.00 in Snow Light Snow
9:53 AM 24.1 °F 11.5 °F 10.9 °F 57% 29.96 in 10.0 mi NNW 15.0 mph 31.1 mph 0.00 in   Overcast
10:53 AM 26.1 °F 15.6 °F 12.0 °F 55% 29.97 in 10.0 mi NNE 11.5 mph 18.4 mph N/A   Overcast
11:53 AM 28.9 °F 23.9 °F 12.9 °F 51% 29.94 in 10.0 mi Variable 4.6 mph 16.1 mph N/A   Partly Cloudy
12:53 PM 30.9 °F 20.7 °F 14.0 °F 50% 29.94 in 10.0 mi NNW 13.8 mph 23.0 mph N/A   Mostly Cloudy
1:53 PM 30.9 °F 19.4 °F 14.0 °F 50% 29.93 in 10.0 mi NW 17.3 mph 24.2 mph N/A   Clear
2:53 PM 30.9 °F 22.8 °F 15.1 °F 52% 29.94 in 10.0 mi NW 9.2 mph 23.0 mph N/A   Clear
3:53 PM 30.0 °F 19.1 °F 16.0 °F 56% 29.99 in 10.0 mi NW 15.0 mph 24.2 mph N/A   Scattered Clouds
4:53 PM 28.0 °F 20.8 °F 16.0 °F 61% 30.03 in 10.0 mi NNW 6.9 mph - N/A   Mostly Cloudy
5:53 PM 28.0 °F 20.8 °F 15.1 °F 58% 30.06 in 10.0 mi North 6.9 mph 24.2 mph N/A   Scattered Clouds
6:53 PM 27.0 °F 23.0 °F 15.1 °F 61% 30.08 in 10.0 mi Variable 3.5 mph - N/A   Clear
7:53 PM 26.1 °F 16.8 °F 10.9 °F 53% 30.09 in 10.0 mi North 9.2 mph - N/A   Clear
8:53 PM 25.0 °F 14.8 °F 10.0 °F 53% 30.10 in 10.0 mi NNW 10.4 mph - N/A   Clear
9:53 PM 21.0 °F 16.2 °F 8.1 °F 57% 30.13 in 10.0 mi NNE 3.5 mph - N/A   Clear
10:53 PM 16.0 °F 8.8 °F 7.0 °F 68% 30.17 in 10.0 mi NE 4.6 mph - N/A   Clear
11:53 PM 16.0 °F 2.9 °F 7.0 °F 68% 30.15 in 10.0 mi NNW 11.5 mph - N/A   Clear